GW4807 Weather Reports


Display with metric or nautical units.
time (UTC)temp
F
wind
direction
speed
MPH
gust
MPH
rain 1hr
in
rain 24hr
in
rain mn
in
humidity
%
barometer
mb
20260508180717 74 105 1.0 1.0 0.00 0.00 0.00 54 1005.0
20260508180214 74 156 1.0 1.0 0.00 0.00 0.00 52 1005.3
20260508175710 73 200 2.0 2.0 0.00 0.00 0.00 52 1005.2
20260508175207 73 310 3.0 3.0 0.00 0.00 0.00 57 1005.3
20260508174705 73 294 5.0 7.0 0.00 0.00 0.00 57 1005.5
20260508174201 73 195 4.0 5.0 0.00 0.00 0.00 58 1005.4
20260508173658 72 109 1.0 2.0 0.00 0.00 0.00 61 1005.6
20260508173154 71 112 0.0 1.0 0.00 0.00 0.00 58 1005.5
20260508172652 71 295 4.0 5.0 0.00 0.00 0.00 59 1005.9
20260508172148 70 116 1.0 2.0 0.00 0.00 0.00 63 1005.8
20260508171645 70 87 0.0 0.0 0.00 0.00 0.00 60 1005.9
20260508171141 70 195 3.0 3.0 0.00 0.00 0.00 61 1005.9
20260508170638 70 121 1.0 1.0 0.00 0.00 0.00 59 1006.1
20260508170136 70 89 3.0 3.0 0.00 0.00 0.00 58 1005.9
20260508165633 70 299 2.0 3.0 0.00 0.00 0.00 62 1006.1
20260508165130 69 115 2.0 2.0 0.00 0.00 0.00 59 1006.2
20260508164626 69 206 4.0 6.0 0.00 0.00 0.00 61 1006.5
20260508164123 69 41 3.0 3.0 0.00 0.00 0.00 64 1006.2
20260508163620 69 207 2.0 2.0 0.00 0.00 0.00 63 1006.4
20260508163117 69 163 3.0 3.0 0.00 0.00 0.00 62 1006.4
20260508162614 68 260 1.0 2.0 0.00 0.00 0.00 62 1006.6
20260508162111 68 289 3.0 5.0 0.00 0.00 0.00 60 1006.8
20260508161608 69 86 2.0 3.0 0.00 0.00 0.00 64 1006.7
20260508161105 68 203 2.0 3.0 0.00 0.00 0.00 63 1006.9
20260508160604 68 297 4.0 5.0 0.00 0.00 0.00 61 1006.8
20260508160100 68 160 2.0 3.0 0.00 0.00 0.00 61 1007.1
20260508155557 67 140 3.0 3.0 0.00 0.00 0.00 62 1006.9
20260508155054 67 135 3.0 6.0 0.00 0.00 0.00 62 1006.9
20260508154551 67 144 1.0 2.0 0.00 0.00 0.00 62 1007.0
20260508154048 67 323 3.0 3.0 0.00 0.00 0.00 63 1006.9
20260508153545 67 185 1.0 2.0 0.00 0.00 0.00 62 1006.7
20260508153041 66 111 1.0 2.0 0.00 0.00 0.00 63 1007.0
20260508152539 66 152 1.0 1.0 0.00 0.00 0.00 65 1007.0
20260508152034 66 194 5.0 6.0 0.00 0.00 0.00 65 1007.0
20260508151531 66 161 3.0 5.0 0.00 0.00 0.00 66 1007.0
20260508151028 65 170 3.0 3.0 0.00 0.00 0.00 66 1007.2
20260508150525 64 181 3.0 3.0 0.00 0.00 0.00 66 1007.5
20260508150020 64 245 2.0 3.0 0.00 0.00 0.00 68 1007.4
20260508145518 63 64 2.0 3.0 0.00 0.00 0.00 67 1007.4
20260508145014 62 199 5.0 6.0 0.00 0.00 0.00 67 1007.2
20260508144512 62 206 5.0 7.0 0.00 0.00 0.00 69 1007.4
20260508144009 61 185 6.0 8.0 0.00 0.00 0.00 69 1007.4
20260508143506 60 165 1.0 2.0 0.00 0.00 0.00 71 1007.4
20260508143002 61 196 3.0 5.0 0.00 0.00 0.00 70 1007.4
20260508142500 61 220 2.0 3.0 0.00 0.00 0.00 69 1007.6
20260508141956 61 167 3.0 5.0 0.00 0.00 0.00 68 1007.5
20260508141453 62 174 3.0 3.0 0.00 0.00 0.00 70 1007.6
20260508140951 61 116 1.0 1.0 0.00 0.00 0.00 72 1007.6
20260508140448 59 169 3.0 5.0 0.00 0.00 0.00 74 1007.7
20260508135943 59 119 0.0 1.0 0.00 0.00 0.00 74 1007.4
20260508135440 59 139 3.0 3.0 0.00 0.00 0.00 73 1007.8
20260508134936 58 346 1.0 2.0 0.00 0.00 0.00 74 1007.6
20260508134433 58 134 0.0 1.0 0.00 0.00 0.00 75 1007.8
20260508133929 59 127 2.0 3.0 0.00 0.00 0.00 74 1007.7
20260508133427 59 21 2.0 2.0 0.00 0.00 0.00 74 1007.6
20260508132924 59 121 0.0 1.0 0.00 0.00 0.00 75 1007.7
20260508132422 58 114 1.0 1.0 0.00 0.00 0.00 77 1007.6
20260508131918 57 104 0.0 0.0 0.00 0.00 0.00 80 1007.6
20260508131414 56 168 2.0 2.0 0.00 0.00 0.00 84 1007.8
20260508130911 54 76 1.0 2.0 0.00 0.00 0.00 84 1007.6
20260508130408 54 111 0.0 1.0 0.00 0.00 0.00 86 1007.5
20260508125903 54 50 0.0 1.0 0.00 0.00 0.00 87 1007.8
20260508125359 53 114 2.0 2.0 0.00 0.00 0.00 92 1007.6
20260508124858 52 303 2.0 2.0 0.00 0.00 0.00 96 1007.8
20260508124355 51 55 1.0 1.0 0.00 0.00 0.00 99 1007.6
20260508123853 50 93 0.0 0.0 0.00 0.00 0.00 99 1007.6
20260508123351 49 52 1.0 1.0 0.00 0.00 0.00 99 1007.5
20260508122847 48 119 0.0 1.0 0.00 0.00 0.00 99 1007.8
20260508122344 48 59 1.0 1.0 0.00 0.00 0.00 99 1007.6
20260508121841 47 100 0.0 0.0 0.00 0.00 0.00 99 1007.6
20260508121340 46 95 1.0 1.0 0.00 0.00 0.00 99 1007.8
20260508120837 45 91 0.0 1.0 0.00 0.00 0.00 99 1007.7
20260508120334 44 102 0.0 0.0 0.00 0.00 0.00 99 1007.8
20260508115832 43 96 0.0 1.0 0.00 0.00 0.00 99 1007.8
20260508115329 43 104 0.0 0.0 0.00 0.00 0.00 99 1007.7
20260508114826 42 103 0.0 0.0 0.00 0.00 0.00 99 1007.5
20260508114323 41 117 0.0 0.0 0.00 0.00 0.00 99 1007.5
20260508113819 41 120 1.0 1.0 0.00 0.00 0.00 99 1007.8
20260508113318 40 111 0.0 0.0 0.00 0.00 0.00 99 1007.5
20260508112813 40 103 0.0 0.0 0.00 0.00 0.00 99 1007.4
20260508112311 40 101 0.0 0.0 0.00 0.00 0.00 99 1007.4
20260508111807 39 101 0.0 0.0 0.00 0.00 0.00 99 1007.6
20260508111305 39 102 0.0 0.0 0.00 0.00 0.00 99 1007.5
20260508110802 40 101 0.0 0.0 0.00 0.00 0.00 99 1007.5
20260508110259 40 101 0.0 0.0 0.00 0.00 0.00 99 1007.5
20260508105759 40 101 0.0 0.0 0.00 0.00 0.00 99 1007.5
20260508105256 40 103 0.0 0.0 0.00 0.00 0.00 99 1007.5
20260508104753 41 103 0.0 0.0 0.00 0.00 0.00 99 1007.5
20260508104250 41 104 0.0 0.0 0.00 0.00 0.00 99 1007.5
20260508103747 41 100 0.0 0.0 0.00 0.00 0.00 99 1007.6
20260508103244 41 103 0.0 0.0 0.00 0.00 0.00 99 1007.5
20260508102741 41 105 0.0 0.0 0.00 0.00 0.00 99 1007.5
20260508102239 41 104 0.0 0.0 0.00 0.00 0.00 99 1007.3
20260508101736 40 110 0.0 0.0 0.00 0.00 0.00 99 1007.3
20260508101233 40 103 0.0 0.0 0.00 0.00 0.00 99 1007.2
20260508100732 39 103 0.0 0.0 0.00 0.00 0.00 99 1007.0
20260508100229 39 102 0.0 0.0 0.00 0.00 0.00 99 1007.1
20260508095725 40 102 0.0 0.0 0.00 0.00 0.00 99 1007.0
20260508095223 39 101 0.0 0.0 0.00 0.00 0.00 99 1007.1
20260508094719 39 102 0.0 0.0 0.00 0.00 0.00 99 1007.4
20260508094216 39 102 0.0 0.0 0.00 0.00 0.00 99 1007.4
20260508093713 40 102 0.0 0.0 0.00 0.00 0.00 99 1007.2
20260508093211 40 102 0.0 0.0 0.00 0.00 0.00 99 1007.3
20260508092708 40 102 0.0 0.0 0.00 0.00 0.00 99 1007.3
20260508092206 40 102 0.0 0.0 0.00 0.00 0.00 99 1007.4
20260508091703 40 101 0.0 0.0 0.00 0.00 0.00 99 1007.5
20260508091200 40 102 0.0 0.0 0.00 0.00 0.00 99 1007.3
20260508090658 40 102 0.0 0.0 0.00 0.00 0.00 99 1007.4
20260508090155 40 101 0.0 0.0 0.00 0.00 0.00 99 1007.5
20260508085651 40 101 0.0 0.0 0.00 0.00 0.00 99 1007.5
20260508085149 40 101 0.0 0.0 0.00 0.00 0.00 99 1007.4
20260508084640 41 102 0.0 0.0 0.00 0.00 0.00 99 1007.4
20260508084137 41 103 0.0 0.0 0.00 0.00 0.00 99 1007.6
20260508083634 41 108 0.0 0.0 0.00 0.00 0.00 99 1007.5
20260508083132 40 104 0.0 0.0 0.00 0.00 0.00 99 1007.6
20260508082632 40 102 0.0 0.0 0.00 0.00 0.00 99 1007.8
20260508082129 40 104 0.0 0.0 0.00 0.00 0.00 99 1007.8
20260508081627 40 101 0.0 0.0 0.00 0.00 0.00 99 1007.7
20260508081123 40 101 0.0 0.0 0.00 0.00 0.00 99 1007.9
20260508080621 40 102 0.0 0.0 0.00 0.00 0.00 99 1007.7
20260508080119 40 102 0.0 0.0 0.00 0.00 0.00 99 1007.9
20260508075615 40 102 0.0 0.0 0.00 0.00 0.00 99 1007.9
20260508075112 41 102 0.0 0.0 0.00 0.00 0.00 99 1007.9
20260508074610 41 102 0.0 0.0 0.00 0.00 0.00 99 1007.9
20260508074106 41 101 0.0 0.0 0.00 0.00 0.00 99 1008.0
20260508073604 41 102 0.0 0.0 0.00 0.00 0.00 99 1008.1
20260508073102 41 102 0.0 0.0 0.00 0.00 0.00 99 1008.0
20260508072556 41 103 0.0 0.0 0.00 0.00 0.00 99 1008.2
20260508072054 41 103 0.0 0.0 0.00 0.00 0.00 99 1008.2
20260508071552 41 102 0.0 0.0 0.00 0.00 0.00 99 1008.1
20260508071050 41 102 0.0 0.0 0.00 0.00 0.00 99 1008.1
20260508070547 41 101 0.0 0.0 0.00 0.00 0.00 99 1008.4
20260508070045 41 101 0.0 0.0 0.00 0.00 0.00 99 1008.6
20260508065542 41 101 0.0 0.0 0.00 0.00 0.00 99 1008.1
20260508065040 41 102 0.0 0.0 0.00 0.00 0.00 99 1008.1
20260508064538 42 102 0.0 0.0 0.00 0.00 0.00 99 1008.4
20260508064030 42 101 0.0 0.0 0.00 0.00 0.00 99 1008.4
20260508063527 42 101 0.0 0.0 0.00 0.00 0.00 99 1008.2
20260508063025 42 103 0.0 0.0 0.00 0.00 0.00 99 1008.6
20260508062517 42 102 0.0 0.0 0.00 0.00 0.00 99 1008.2
20260508062013 42 105 0.0 0.0 0.00 0.00 0.00 99 1008.6
20260508061512 42 105 0.0 0.0 0.00 0.00 0.00 99 1008.4
20260508061008 42 104 0.0 0.0 0.00 0.00 0.00 99 1008.4
20260508060505 42 99 0.0 0.0 0.00 0.00 0.00 99 1008.6
20260508060002 42 105 0.0 0.0 0.00 0.00 0.00 99 1008.5
20260508055458 42 105 0.0 0.0 0.00 0.00 0.00 99 1008.6
20260508054954 42 106 0.0 0.0 0.00 0.00 0.00 98 1008.7
20260508054451 42 102 0.0 0.0 0.00 0.00 0.00 98 1008.8
20260508053948 42 103 0.0 0.0 0.00 0.00 0.00 98 1008.8
20260508053445 42 103 0.0 0.0 0.00 0.00 0.00 98 1008.8
20260508052943 42 101 0.0 0.0 0.00 0.00 0.00 97 1008.8
20260508052440 43 101 0.0 0.0 0.00 0.00 0.00 97 1008.9
20260508051937 43 97 0.0 0.0 0.00 0.00 0.00 97 1009.0
20260508051432 43 103 0.0 0.0 0.00 0.00 0.00 97 1008.9
20260508050928 43 102 0.0 0.0 0.00 0.00 0.00 96 1009.1
20260508050425 43 101 0.0 0.0 0.00 0.00 0.00 96 1009.1
20260508045921 44 101 0.0 0.0 0.00 0.00 0.00 96 1008.8
20260508045419 44 105 0.0 0.0 0.00 0.00 0.00 96 1008.8
20260508044916 43 95 0.0 0.0 0.00 0.00 0.00 95 1008.9
20260508044413 43 105 0.0 0.0 0.00 0.00 0.00 95 1009.0
20260508043903 44 102 0.0 0.0 0.00 0.00 0.00 94 1009.0
20260508043401 44 103 0.0 0.0 0.00 0.00 0.00 94 1009.0
20260508042857 44 102 0.0 0.0 0.00 0.00 0.00 94 1009.0
20260508042354 44 102 0.0 0.0 0.00 0.00 0.00 94 1009.1
20260508041851 44 103 0.0 0.0 0.00 0.00 0.00 94 1009.3
20260508041347 44 107 0.0 0.0 0.00 0.00 0.00 93 1009.5
20260508040844 44 103 0.0 0.0 0.00 0.00 0.00 91 1009.5
20260508040342 44 103 0.0 0.0 0.00 0.00 0.00 91 1009.2
20260508035839 45 102 0.0 0.0 0.00 0.00 0.00 91 1009.2
20260508035336 45 103 0.0 0.0 0.00 0.00 0.00 90 1009.2
20260508034833 46 102 0.0 0.0 0.00 0.00 0.00 90 1009.3
20260508034330 46 102 0.0 0.0 0.00 0.00 0.00 90 1009.5
20260508033827 46 103 0.0 0.0 0.00 0.00 0.00 90 1009.4
20260508033325 46 106 0.0 0.0 0.00 0.00 0.00 90 1009.4
20260508032822 46 106 0.0 0.0 0.00 0.00 0.00 90 1009.1
20260508032319 46 105 0.0 0.0 0.00 0.00 0.00 89 1009.3
20260508031816 46 105 0.0 0.0 0.00 0.00 0.00 88 1009.3
20260508031313 47 103 0.0 0.0 0.00 0.00 0.00 87 1009.1
20260508030809 47 103 0.0 0.0 0.00 0.00 0.00 87 1009.0
20260508030307 47 102 0.0 0.0 0.00 0.00 0.00 87 1009.2
20260508025803 47 107 0.0 0.0 0.00 0.00 0.00 86 1008.9
20260508025300 47 104 0.0 0.0 0.00 0.00 0.00 86 1009.1
20260508024756 48 104 0.0 0.0 0.00 0.00 0.00 84 1008.8
20260508024253 48 104 0.0 0.0 0.00 0.00 0.00 84 1008.8
20260508023750 48 104 0.0 0.0 0.00 0.00 0.00 84 1008.7
20260508023247 49 105 0.0 0.0 0.00 0.00 0.00 83 1008.7
20260508022743 49 107 0.0 0.0 0.00 0.00 0.00 82 1008.4
20260508022240 49 104 0.0 0.0 0.00 0.00 0.00 82 1008.5
20260508021737 49 107 0.0 0.0 0.00 0.00 0.00 82 1008.5
20260508021232 50 105 0.0 0.0 0.00 0.00 0.00 81 1008.4
20260508020729 50 103 0.0 0.0 0.00 0.00 0.00 80 1008.1
20260508020227 51 103 0.0 0.0 0.00 0.00 0.00 80 1008.1
20260508015723 51 111 0.0 0.0 0.00 0.00 0.00 80 1008.0
20260508015220 51 115 0.0 0.0 0.00 0.00 0.00 79 1008.2
20260508014717 51 108 0.0 0.0 0.00 0.00 0.00 78 1008.5
20260508014214 52 108 0.0 0.0 0.00 0.00 0.00 77 1007.9
20260508013709 52 121 0.0 1.0 0.00 0.00 0.00 76 1008.0
20260508013206 52 112 0.0 0.0 0.00 0.00 0.00 76 1008.0
20260508012704 53 107 0.0 0.0 0.00 0.00 0.00 76 1008.1
20260508012200 53 117 0.0 0.0 0.00 0.00 0.00 76 1007.9
20260508011659 54 115 0.0 0.0 0.00 0.00 0.00 75 1007.6
20260508011156 54 110 0.0 0.0 0.00 0.00 0.00 74 1007.5
20260508010653 55 122 0.0 1.0 0.00 0.00 0.00 72 1007.7
20260508010151 56 110 0.0 0.0 0.00 0.00 0.00 71 1007.7
20260508005648 56 117 0.0 0.0 0.00 0.00 0.00 68 1007.6
20260508005145 57 123 1.0 1.0 0.00 0.00 0.00 67 1007.6
20260508004640 57 132 1.0 1.0 0.00 0.00 0.00 69 1007.8
20260508004136 58 133 0.0 1.0 0.00 0.00 0.00 65 1007.7
20260508003633 59 123 0.0 1.0 0.00 0.00 0.00 62 1007.5
20260508003131 60 136 1.0 1.0 0.00 0.00 0.00 60 1007.7
20260508002627 61 119 0.0 1.0 0.00 0.00 0.00 57 1007.6
20260508002126 62 128 0.0 0.0 0.00 0.00 0.00 54 1007.7
20260508001625 63 111 0.0 0.0 0.00 0.00 0.00 53 1007.5
20260508001122 64 111 0.0 1.0 0.00 0.00 0.00 50 1007.6
20260508000617 65 155 1.0 1.0 0.00 0.00 0.00 45 1007.8
20260508000115 66 121 0.0 1.0 0.00 0.00 0.00 45 1007.6
20260507235612 66 153 1.0 1.0 0.00 0.00 0.00 43 1007.6
20260507235109 66 92 0.0 1.0 0.00 0.00 0.00 44 1007.7
20260507234606 67 90 0.0 1.0 0.00 0.00 0.00 42 1007.6
20260507234102 67 76 1.0 2.0 0.00 0.00 0.00 43 1007.7
20260507233559 68 112 1.0 2.0 0.00 0.00 0.00 40 1007.7
20260507233058 68 153 1.0 2.0 0.00 0.00 0.00 40 1007.6
20260507232553 69 177 3.0 5.0 0.00 0.00 0.00 41 1007.6
20260507232051 70 340 2.0 3.0 0.00 0.00 0.00 37 1007.7
20260507231547 70 205 2.0 2.0 0.00 0.00 0.00 40 1007.8
20260507231045 69 197 1.0 2.0 0.00 0.00 0.00 40 1007.8
20260507230541 69 168 3.0 3.0 0.00 0.00 0.00 39 1007.9
20260507230038 69 335 1.0 2.0 0.00 0.00 0.00 41 1008.0
20260507225533 69 304 3.0 5.0 0.00 0.00 0.00 40 1008.1
20260507225029 69 226 4.0 6.0 0.00 0.00 0.00 38 1008.2
20260507224525 69 294 3.0 3.0 0.00 0.00 0.00 38 1008.0
20260507224022 70 194 1.0 1.0 0.00 0.00 0.00 39 1008.0
20260507223518 70 73 0.0 1.0 0.00 0.00 0.00 40 1008.2
20260507223016 71 171 1.0 2.0 0.00 0.00 0.00 38 1007.9
20260507222513 70 95 0.0 0.0 0.00 0.00 0.00 42 1008.2
20260507222008 69 130 2.0 3.0 0.00 0.00 0.00 37 1008.4
20260507221505 69 322 4.0 5.0 0.00 0.00 0.00 38 1008.2
20260507221002 69 279 3.0 3.0 0.00 0.00 0.00 40 1008.5
20260507220459 69 117 1.0 2.0 0.00 0.00 0.00 37 1008.2
20260507215956 69 297 2.0 3.0 0.00 0.00 0.00 39 1008.2
20260507215452 69 192 3.0 5.0 0.00 0.00 0.00 38 1008.2
20260507214950 70 183 3.0 3.0 0.00 0.00 0.00 36 1008.0
20260507214447 70 156 3.0 5.0 0.00 0.00 0.00 37 1008.4
20260507213943 69 147 1.0 1.0 0.00 0.00 0.00 37 1008.1
20260507213440 69 192 4.0 6.0 0.00 0.00 0.00 38 1008.4
20260507212937 71 202 3.0 5.0 0.00 0.00 0.00 35 1008.6
20260507212432 70 95 0.0 0.0 0.00 0.00 0.00 42 1008.4
20260507211929 71 198 4.0 6.0 0.00 0.00 0.00 36 1008.4
20260507211426 70 152 0.0 1.0 0.00 0.00 0.00 40 1008.7
20260507210923 70 339 2.0 3.0 0.00 0.00 0.00 38 1008.7
20260507210420 70 198 3.0 6.0 0.00 0.00 0.00 42 1008.6
20260507205917 71 334 3.0 3.0 0.00 0.00 0.00 37 1008.7
20260507205414 70 200 1.0 1.0 0.00 0.00 0.00 39 1009.0
20260507204910 69 108 1.0 1.0 0.00 0.00 0.00 43 1008.9
20260507204406 68 242 2.0 3.0 0.00 0.00 0.00 41 1009.1
20260507203904 68 263 3.0 3.0 0.00 0.00 0.00 42 1009.1
20260507203402 69 230 5.0 7.0 0.00 0.00 0.00 37 1009.1
20260507202858 69 162 2.0 2.0 0.00 0.00 0.00 39 1009.3
20260507202354 68 129 0.0 0.0 0.00 0.00 0.00 36 1009.4
20260507201850 67 215 3.0 5.0 0.00 0.00 0.00 37 1009.5
20260507201346 68 247 2.0 2.0 0.00 0.00 0.00 37 1009.3
20260507200842 68 230 7.0 9.0 0.00 0.00 0.00 37 1009.2
20260507200338 69 283 2.0 3.0 0.00 0.00 0.00 41 1009.3
20260507195835 69 119 2.0 2.0 0.00 0.00 0.00 40 1009.4
20260507195332 69 44 2.0 2.0 0.00 0.00 0.00 43 1009.4
20260507194829 68 112 3.0 5.0 0.00 0.00 0.00 40 1009.5
20260507194325 68 160 2.0 3.0 0.00 0.00 0.00 41 1009.7
20260507193822 68 316 2.0 3.0 0.00 0.00 0.00 40 1009.6
20260507193314 68 223 2.0 2.0 0.00 0.00 0.00 41 1009.7
20260507192809 68 235 2.0 2.0 0.00 0.00 0.00 42 1009.7
20260507192307 67 278 4.0 6.0 0.00 0.00 0.00 36 1009.8
20260507191803 67 229 1.0 2.0 0.00 0.00 0.00 43 1009.6
20260507191259 67 149 2.0 3.0 0.00 0.00 0.00 37 1009.8
20260507190756 68 174 3.0 5.0 0.00 0.00 0.00 39 1010.1
20260507190255 67 67 1.0 1.0 0.00 0.00 0.00 42 1010.0
20260507185753 67 330 2.0 2.0 0.00 0.00 0.00 42 1009.9
20260507185249 67 215 3.0 5.0 0.00 0.00 0.00 44 1010.0
20260507184747 67 167 1.0 1.0 0.00 0.00 0.00 44 1010.2
20260507184245 68 289 2.0 5.0 0.00 0.00 0.00 39 1010.2
20260507183741 68 163 1.0 2.0 0.00 0.00 0.00 41 1010.0
20260507183238 66 91 0.0 1.0 0.00 0.00 0.00 37 1010.3
20260507182736 67 183 3.0 3.0 0.00 0.00 0.00 42 1010.3
20260507182235 65 148 1.0 1.0 0.00 0.00 0.00 46 1010.4
20260507181733 66 83 1.0 2.0 0.00 0.00 0.00 41 1010.2
20260507181229 65 58 1.0 2.0 0.00 0.00 0.00 40 1010.5